Skip Page Navigation
NASA JPL Caltech
NASA Logo - Jet Propulsion Laboratory + View the NASA Portal
+ Center for Near-Earth Object Studies
JPL Home Earth Solar System Stars & Galaxies Technology
JPL Solar System Dynamics
BODIES ORBITS EPHEMERIDES TOOLS PHYSICAL DATA DISCOVERY FAQ SITE MAP
JPL Small-Body Database Browser
Search: [ help ]  
452748 (2006 BQ179)
Classification: Main-belt Asteroid          SPK-ID: 2452748
Ephemeris | Orbit Diagram | Orbital Elements | Mission Design | Physical Parameters | Discovery Circumstances | Close-Approach Data ]

[ show orbit diagram ]
Orbital Elements at Epoch 2459000.5 (2020-May-31.0) TDB
Reference: JPL 11 (heliocentric ecliptic J2000)
 Element Value Uncertainty (1-sigma)   Units 
e .1272866673973683 1.5077e-07  
a 3.095105881461304 6.0216e-08 au
q 2.7011401685681 4.6771e-07 au
i 5.159926404974329 1.6554e-05 deg
node 329.4099751175713 8.1667e-05 deg
peri 180.1238884562902 8.8876e-05 deg
M 216.6005380930218 4.2843e-05 deg
tp 2459792.739904300099
(2022-Aug-01.23990430)
0.00025397 TDB
period 1988.894252148911
5.45
5.8042e-05
1.589e-07
d
yr
n .1810050984918058 5.2823e-09 deg/d
Q 3.489071594354507 6.7881e-08 au
  Orbit Determination Parameters
   # obs. used (total)      69  
   data-arc span      4957 days (13.57 yr)  
   first obs. used      2006-01-27  
   last obs. used      2019-08-24  
   planetary ephem.      DE431  
   SB-pert. ephem.      SB431-N16  
   condition code      0  
   norm. resid. RMS      .72924  
   source      ORB  
   producer      Otto Matic  
   solution date      2019-Sep-24 07:57:20  

Additional Information
 Earth MOID = 1.71235 au 
 Jupiter MOID = 1.51799 au 
 T_jup = 3.205 
[ show covariance matrix ]

Ephemeris | Orbit Diagram | Orbital Elements | Mission Design | Physical Parameters | Discovery Circumstances | Close-Approach Data ]

Physical Parameter Table
Parameter Symbol Value Units Sigma Reference Notes
absolute magnitude H 16.6   n/a MPO495258  

452748 (2006 BQ179)          Discovered 2006-Jan-27 by Mt. Lemmon Survey at Mount Lemmon
Reference: Last Updated: 2016-01-04

[ show close-approach data ]
Ephemeris | Orbit Diagram | Orbital Elements | Mission Design | Physical Parameters | Discovery Circumstances | Close-Approach Data ]
ABOUT SSD CREDITS/AWARDS PRIVACY/COPYRIGHT GLOSSARY LINKS
FirstGov 2020-Sep-19 04:07 UT
(server date/time)  
NASA Home Page
Site Manager:   Ryan S. Park
Webmaster  Alan B. Chamberlin